sat.trackr.live / text

‹ back to catalog

STARLINK-4392

NORAD 53489 · 2022-099AA

PAYLOAD ACTIVE UNKNOWN

§ Identity

Operator
Country
US
Launch date
2022-08-12
Launch site
AFWTR
Launch vehicle
Mass (kg)
RCS (m²)

Purposes: comms

External: N2YO · Heavens-Above · Gunter

§ Orbital elements

Epoch: 2026-09-20T04:00:03.000096Z

Period
94.88 min
Inclination
97.2850°
Eccentricity
0.0001870
Mean motion
15.17733429 rev/d
Perigee alt
511.4 km
Apogee alt
514.0 km
Semi-major
6,890.8 km
B*
2.3261e-3
RAAN
17.1287°
Arg perigee
88.3300°
Mean anomaly
125.0859°
Rev number
586

§ Raw data

STARLINK-43921 53489U 22099AA  26263.16670139  .00047135  00000+0  23261-2 0  99982 53489  97.2850  17.1287 0001870  88.3300 125.0859 15.17733429  5867

JSON: /api/v1/satellites/53489 · /tle

For live sub-satellite position, see the globe view (requires WebGL).

§ Visibility from observer

Set your observer location to see the next 7 days of passes ≥ 10°. The values pass through the URL so the page stays shareable.

No JS? Fill the form by hand. The geolocation button needs JavaScript.